QPF
0.01 0.01 0.01 0.00 0.00 0.00 0.00 0.00 0.00 0.00 0.00 0.01 0.02 0.04 0.09 0.10 0.09 0.12 0.14 0.20 0.21 0.20 0.16 0.12 0.06 0.02 0.00 0.01 0.00 0.00 0.00 0.00 0.00 0.00 0.00 0.00 0.00 0.00 0.00 0.00 0.00 0.00 0.00
0.03 0.02 0.01 0.01 0.00 0.00 0.00 0.00 0.00 0.01 0.04 0.05 0.03 0.03 0.04 0.05 0.08 0.11 0.15 0.25 0.26 0.23 0.22 0.20 0.16 0.12 0.05 0.02 0.02 0.01 0.01 0.01 0.00 0.00 0.00 0.00 0.00 0.00 0.00 0.00 0.00 0.00 0.00
0.00 0.01 0.00 0.00 0.00 0.00 0.00 0.02 0.04 0.05 0.04 0.05 0.03 0.02 0.03 0.05 0.07 0.09 0.13 0.16 0.23 0.25 0.22 0.18 0.16 0.15 0.09 0.04 0.04 0.03 0.02 0.01 0.00 0.00 0.00 0.00 0.00 0.00 0.00 0.00 0.00 0.00 0.00
0.01 0.00 0.00 0.00 0.00 0.01 0.02 0.01 0.00 0.00 0.00 0.01 0.01 0.01 0.02 0.03 0.03 0.06 0.09 0.13 0.13 0.16 0.17 0.20 0.18 0.14 0.09 0.07 0.06 0.04 0.03 0.01 0.00 0.00 0.00 0.00 0.00 0.00 0.00 0.00 0.00 0.00 0.00
0.00 0.01 0.00 0.00 0.00 0.00 0.00 0.00 0.00 0.00 0.00 0.00 0.01 0.00 0.00 0.01 0.02 0.04 0.03 0.02 0.02 0.02 0.04 0.06 0.07 0.05 0.10 0.09 0.04 0.02 0.02 0.03 0.02 0.01 0.00 0.00 0.00 0.00 0.00 0.00 0.00 0.00 0.00
0.00 0.00 0.00 0.00 0.00 0.00 0.00 0.00 0.00 0.00 0.00 0.00 0.00 0.01 0.01 0.00 0.01 0.00 0.00 0.00 0.00 0.00 0.01 0.02 0.03 0.05 0.08 0.09 0.06 0.05 0.03 0.04 0.03 0.02 0.01 0.01 0.00 0.00 0.00 0.00 0.00 0.00 0.00
0.00 0.00 0.00 0.00 0.00 0.00 0.00 0.00 0.00 0.00 0.01 0.01 0.01 0.00 0.00 0.01 0.01 0.00 0.00 0.00 0.01 0.00 0.00 0.00 0.01 0.02 0.06 0.07 0.06 0.03 0.03 0.02 0.02 0.01 0.01 0.01 0.01 0.00 0.00 0.00 0.00 0.00 0.00
0.00 0.00 0.00 0.00 0.00 0.00 0.00 0.00 0.00 0.00 0.00 0.00 0.00 0.00 0.00 0.00 0.00 0.00 0.00 0.00 0.00 0.00 0.01 0.01 0.03 0.02 0.02 0.04 0.07 0.07 0.03 0.02 0.01 0.00 0.01 0.01 0.02 0.02 0.01 0.01 0.00 0.00 0.00
0.00 0.00 0.00 0.00 0.00 0.00 0.00 0.00 0.00 0.00 0.00 0.00 0.00 0.00 0.00 0.00 0.00 0.00 0.00 0.00 0.00 0.00 0.00 0.00 0.00 0.00 0.01 0.03 0.05 0.06 0.06 0.05 0.07 0.02 0.02 0.01 0.01 0.01 0.00 0.00 0.00 0.00 0.00
0.00 0.00 0.00 0.00 0.00 0.00 0.00 0.00 0.00 0.00 0.00 0.00 0.00 0.00 0.00 0.00 0.00 0.00 0.00 0.00 0.00 0.01 0.00 0.00 0.00 0.00 0.01 0.02 0.03 0.04 0.02 0.03 0.04 0.02 0.01 0.01 0.00 0.00 0.00 0.00 0.00 0.00 0.00
0.00 0.00 0.00 0.00 0.00 0.00 0.00 0.00 0.00 0.00 0.00 0.00 0.00 0.00 0.00 0.00 0.00 0.00 0.00 0.00 0.00 0.00 0.00 0.00 0.00 0.00 0.01 0.02 0.01 0.02 0.03 0.03 0.04 0.04 0.02 0.01 0.00 0.00 0.00 0.00 0.00 0.00 0.00
0.00 0.00 0.00 0.00 0.00 0.00 0.00 0.00 0.00 0.01 0.01 0.01 0.01 0.00 0.00 0.00 0.00 0.00 0.00 0.00 0.00 0.01 0.00 0.00 0.00 0.00 0.00 0.00 0.00 0.00 0.01 0.01 0.01 0.02 0.01 0.01 0.00 0.00 0.00 0.00 0.00 0.00 0.01
0.00 0.00 0.00 0.00 0.00 0.00 0.00 0.00 0.00 0.00 0.01 0.00 0.00 0.00 0.00 0.00 0.00 0.00 0.00 0.01 0.01 0.00 0.00 0.00 0.00 0.00 0.00 0.01 0.03 0.04 0.01 0.00 0.00 0.00 0.01 0.01 0.00 0.00 0.00 0.00 0.01 0.01 0.04
0.00 0.00 0.00 0.00 0.00 0.00 0.00 0.00 0.00 0.00 0.01 0.00 0.00 0.00 0.00 0.00 0.00 0.00 0.00 0.00 0.00 0.00 0.01 0.00 0.00 0.00 0.00 0.01 0.01 0.01 0.00 0.00 0.00 0.00 0.02 0.02 0.01 0.00 0.01 0.00 0.01 0.01 0.02
0.00 0.00 0.00 0.00 0.00 0.00 0.00 0.00 0.01 0.01 0.01 0.00 0.00 0.00 0.00 0.00 0.01 0.00 0.00 0.00 0.00 0.00 0.00 0.00 0.00 0.04 0.10 0.13 0.10 0.02 0.02 0.02 0.02 0.01 0.02 0.01 0.01 0.01 0.02 0.02 0.03 0.01 0.00
0.00 0.00 0.00 0.00 0.00 0.00 0.00 0.00 0.01 0.01 0.00 0.00 0.00 0.00 0.00 0.00 0.00 0.00 0.00 0.00 0.00 0.00 0.00 0.00 0.04 0.04 0.07 0.10 0.05 0.00 0.00 0.00 0.00 0.00 0.01 0.02 0.02 0.01 0.02 0.02 0.03 0.02 0.01
0.00 0.00 0.00 0.00 0.00 0.00 0.01 0.02 0.01 0.01 0.01 0.02 0.01 0.00 0.00 0.00 0.00 0.00 0.00 0.00 0.00 0.00 0.00 0.01 0.01 0.00 0.03 0.02 0.01 0.00 0.00 0.00 0.00 0.00 0.01 0.02 0.03 0.02 0.01 0.02 0.03 0.02 0.01
0.00 0.00 0.00 0.00 0.00 0.00 0.01 0.00 0.00 0.01 0.02 0.03 0.02 0.00 0.00 0.00 0.00 0.00 0.00 0.00 0.01 0.00 0.00 0.00 0.00 0.00 0.00 0.00 0.00 0.00 0.00 0.01 0.01 0.01 0.02 0.03 0.03 0.03 0.03 0.03 0.02 0.02 0.02
0.00 0.00 0.00 0.00 0.00 0.00 0.00 0.00 0.01 0.02 0.02 0.01 0.01 0.00 0.00 0.00 0.00 0.00 0.00 0.00 0.00 0.00 0.00 0.02 0.03 0.02 0.01 0.00 0.00 0.01 0.01 0.01 0.01 0.02 0.03 0.03 0.04 0.03 0.03 0.01 0.01 0.00 0.01
0.00 0.00 0.00 0.00 0.00 0.00 0.00 0.00 0.00 0.00 0.00 0.00 0.01 0.00 0.00 0.00 0.00 0.00 0.00 0.00 0.00 0.01 0.01 0.01 0.01 0.01 0.00 0.01 0.01 0.01 0.02 0.00 0.00 0.00 0.00 0.00 0.00 0.00 0.00 0.00 0.00 0.00 0.01
0.00 0.00 0.00 0.00 0.00 0.00 0.00 0.00 0.00 0.00 0.00 0.00 0.00 0.00 0.00 0.00 0.00 0.00 0.00 0.00 0.00 0.00 0.00 0.00 0.00 0.00 0.00 0.00 0.00 0.00 0.00 0.00 0.00 0.00 0.00 0.00 0.00 0.00 0.00 0.00 0.00 0.00 0.00
0.00 0.00 0.00 0.00 0.00 0.00 0.00 0.00 0.00 0.00 0.00 0.00 0.00 0.00 0.00 0.00 0.00 0.00 0.00 0.00 0.00 0.00 0.00 0.00 0.00 0.00 0.00 0.00 0.00 0.00 0.00 0.00 0.00 0.00 0.00 0.00 0.00 0.00 0.00 0.00 0.00 0.00 0.00
0.00 0.00 0.00 0.00 0.00 0.00 0.00 0.00 0.00 0.00 0.00 0.00 0.00 0.00 0.00 0.00 0.00 0.00 0.00 0.00 0.00 0.00 0.00 0.00 0.00 0.00 0.00 0.00 0.00 0.00 0.00 0.00 0.00 0.00 0.00 0.00 0.00 0.00 0.00 0.00 0.00 0.00 0.00
0.00 0.00 0.00 0.00 0.00 0.00 0.00 0.00 0.00 0.00 0.00 0.00 0.00 0.01 0.01 0.01 0.00 0.00 0.00 0.00 0.00 0.00 0.00 0.00 0.00 0.00 0.00 0.00 0.00 0.00 0.00 0.00 0.00 0.00 0.00 0.00 0.00 0.00 0.00 0.00 0.00 0.00 0.00
0.01 0.00 0.00 0.01 0.01 0.00 0.00 0.00 0.00 0.00 0.00 0.00 0.00 0.00 0.00 0.00 0.00 0.00 0.00 0.00 0.00 0.00 0.00 0.00 0.00 0.00 0.00 0.00 0.00 0.00 0.00 0.00 0.00 0.00 0.00 0.00 0.00 0.01 0.01 0.01 0.01 0.00 0.00
0.05 0.01 0.01 0.02 0.04 0.01 0.00 0.00 0.00 0.00 0.00 0.00 0.00 0.00 0.00 0.00 0.00 0.00 0.00 0.00 0.00 0.00 0.00 0.00 0.00 0.00 0.00 0.00 0.00 0.00 0.00 0.00 0.00 0.00 0.00 0.01 0.01 0.01 0.01 0.01 0.01 0.01 0.01
MSLP
1011.68 1012.52 1012.92 1013.46 1013.86 1014.58 1014.83 1014.97 1014.44 1014.05 1013.90 1014.07 1014.18 1014.23 1014.47 1014.60 1014.66 1014.84 1014.92 1014.75 1014.76 1014.62 1014.62 1014.72 1014.60 1014.58 1014.74 1014.85 1014.70 1014.73 1015.15 1015.37 1015.43 1015.13 1015.00 1014.87 1014.89 1014.92 1015.29 1015.50 1016.14 1016.89 1017.33
1011.47 1012.30 1013.06 1013.79 1014.11 1014.61 1014.69 1014.50 1014.14 1013.82 1013.93 1013.83 1013.89 1013.96 1014.09 1014.16 1014.29 1014.29 1014.20 1013.98 1013.97 1014.09 1014.07 1014.14 1014.12 1014.21 1014.30 1014.19 1013.72 1014.42 1014.87 1014.86 1015.11 1015.12 1015.10 1015.12 1015.21 1015.28 1015.34 1015.69 1016.19 1016.34 1017.05
1011.72 1012.82 1013.49 1013.96 1014.25 1014.34 1014.23 1013.91 1013.72 1013.64 1013.61 1013.58 1013.56 1013.58 1013.61 1013.78 1013.91 1013.99 1013.88 1013.71 1013.61 1013.52 1013.59 1013.43 1013.35 1013.74 1013.42 1013.89 1013.64 1013.92 1014.47 1014.85 1014.74 1015.14 1015.13 1015.06 1015.22 1015.51 1016.20 1015.97 1016.20 1016.86 1016.84
1012.19 1012.69 1013.15 1013.44 1013.51 1013.55 1013.50 1013.39 1013.33 1013.36 1013.41 1013.65 1013.69 1013.67 1013.79 1013.62 1013.61 1013.60 1013.78 1013.67 1013.43 1013.35 1013.33 1013.18 1013.06 1013.29 1013.39 1013.59 1013.61 1014.06 1014.25 1014.41 1014.58 1014.69 1015.14 1015.19 1015.39 1015.67 1015.76 1016.12 1016.38 1016.58 1016.78
1012.13 1012.65 1012.79 1012.89 1013.14 1013.39 1013.46 1013.39 1013.64 1013.87 1014.10 1014.21 1014.19 1013.98 1013.84 1013.70 1013.81 1013.77 1013.71 1013.49 1013.22 1012.97 1012.84 1012.82 1012.84 1012.76 1012.90 1013.03 1013.27 1013.43 1013.64 1013.97 1014.18 1014.49 1014.14 1014.42 1014.82 1015.13 1015.34 1015.40 1015.89 1016.49 1016.73
1011.96 1012.33 1012.81 1013.11 1013.27 1013.50 1013.54 1013.68 1014.11 1014.49 1014.61 1014.60 1014.45 1014.29 1014.02 1013.91 1013.87 1013.86 1013.80 1013.69 1013.50 1013.29 1013.06 1012.66 1012.43 1012.33 1012.33 1012.35 1012.56 1012.76 1012.90 1013.14 1012.60 1012.74 1013.25 1013.13 1013.25 1013.74 1014.23 1014.66 1015.32 1016.22 1016.57
1012.15 1012.42 1012.87 1013.08 1013.29 1013.56 1013.63 1013.85 1014.28 1014.55 1014.70 1014.60 1014.44 1014.21 1014.09 1013.93 1013.74 1013.71 1013.59 1013.61 1013.37 1013.07 1012.69 1012.40 1012.15 1011.94 1011.86 1011.98 1011.87 1012.08 1012.39 1012.33 1012.44 1012.82 1012.62 1011.97 1012.10 1012.30 1013.08 1013.70 1014.22 1014.78 1015.06
1012.23 1012.61 1012.97 1013.32 1013.70 1013.95 1014.07 1014.32 1014.41 1014.65 1014.82 1014.68 1014.50 1014.13 1013.96 1013.78 1013.59 1013.49 1013.40 1013.30 1012.88 1012.47 1012.18 1011.85 1011.60 1011.26 1011.00 1010.94 1010.86 1011.20 1011.70 1011.85 1011.92 1011.82 1011.76 1011.79 1011.94 1011.96 1012.38 1012.85 1013.19 1013.57 1014.41
1012.67 1013.00 1013.39 1013.68 1013.93 1014.21 1014.30 1014.41 1014.54 1014.71 1014.75 1014.58 1014.23 1014.00 1013.77 1013.53 1013.34 1013.09 1013.09 1012.96 1012.48 1012.12 1011.76 1011.45 1011.29 1011.16 1010.90 1010.62 1010.46 1010.67 1010.82 1011.06 1010.95 1010.90 1011.10 1011.20 1011.05 1011.32 1011.48 1012.13 1012.39 1013.18 1013.76
1013.29 1013.45 1013.61 1013.81 1014.03 1014.41 1014.47 1014.20 1014.38 1014.39 1014.36 1014.14 1013.97 1013.74 1013.53 1013.37 1013.32 1013.12 1012.99 1012.64 1012.69 1012.33 1011.85 1011.43 1011.21 1011.38 1011.25 1011.16 1010.78 1010.40 1010.49 1010.14 1010.18 1010.61 1011.00 1011.02 1010.72 1010.76 1010.91 1011.06 1011.53 1012.17 1012.76
1013.72 1013.69 1013.75 1013.92 1014.07 1014.11 1014.10 1013.99 1013.98 1014.08 1014.21 1014.32 1013.75 1013.41 1013.01 1012.88 1012.94 1012.58 1012.35 1012.08 1011.77 1011.76 1011.53 1011.19 1010.88 1011.07 1011.11 1011.10 1011.03 1010.79 1010.11 1010.03 1009.81 1009.76 1009.74 1009.77 1010.00 1010.30 1010.32 1010.41 1010.90 1011.21 1011.97
1013.86 1013.97 1013.86 1013.90 1013.88 1013.82 1013.84 1013.74 1013.80 1014.14 1014.19 1014.26 1013.80 1013.19 1013.28 1013.06 1012.53 1012.60 1012.40 1011.97 1012.05 1012.14 1011.49 1011.00 1010.82 1010.86 1010.55 1010.41 1010.64 1010.25 1010.08 1009.97 1009.70 1009.40 1009.11 1009.09 1009.35 1009.68 1009.88 1010.06 1010.35 1010.95 1011.39
1013.95 1013.98 1013.96 1013.86 1013.79 1013.66 1013.64 1013.86 1013.75 1013.91 1013.96 1014.01 1013.90 1013.09 1012.67 1012.47 1012.21 1012.23 1012.32 1012.23 1012.24 1012.07 1011.40 1011.05 1010.74 1010.49 1010.03 1009.51 1009.36 1009.61 1009.64 1009.48 1009.19 1008.95 1008.63 1008.58 1008.86 1009.20 1009.63 1009.91 1010.14 1010.88 1011.51
1013.70 1013.85 1013.80 1013.63 1013.51 1013.54 1013.52 1013.39 1014.10 1014.29 1014.80 1013.94 1013.82 1013.06 1012.78 1012.48 1012.25 1012.52 1012.57 1012.37 1012.16 1011.92 1011.67 1011.27 1010.48 1009.86 1009.29 1008.79 1008.97 1008.80 1008.81 1008.84 1008.63 1008.36 1008.19 1008.20 1008.49 1008.78 1009.02 1009.29 1009.95 1010.96 1011.76
1013.48 1013.54 1013.54 1013.46 1013.62 1013.41 1013.64 1014.46 1014.70 1014.62 1014.52 1014.09 1014.06 1013.41 1012.95 1012.75 1013.26 1013.33 1013.40 1013.06 1012.86 1012.47 1012.10 1011.05 1009.99 1009.15 1008.56 1008.15 1007.89 1008.11 1008.50 1008.60 1008.36 1008.07 1008.06 1008.20 1008.23 1008.42 1008.83 1009.40 1009.89 1010.92 1011.41
1013.45 1013.56 1013.66 1013.65 1013.57 1013.72 1014.10 1013.85 1014.38 1014.03 1013.33 1013.28 1013.57 1013.31 1013.06 1013.30 1013.17 1013.10 1012.98 1012.88 1012.50 1012.18 1011.82 1010.91 1010.30 1009.58 1008.84 1008.41 1008.07 1008.13 1008.40 1008.49 1008.42 1008.31 1008.17 1008.02 1008.52 1008.78 1008.97 1009.44 1010.01 1010.57 1011.25
1013.90 1014.07 1014.14 1014.02 1014.10 1013.95 1013.90 1013.83 1013.71 1013.21 1012.90 1013.34 1013.22 1013.42 1013.45 1013.52 1013.31 1013.09 1012.91 1012.82 1012.34 1012.01 1011.67 1011.04 1010.56 1010.01 1009.53 1009.23 1008.82 1008.41 1008.50 1008.66 1008.58 1008.50 1008.66 1008.69 1008.87 1008.70 1009.19 1009.23 1009.96 1010.56 1010.90
1014.36 1014.50 1014.36 1014.40 1014.25 1013.82 1013.48 1013.40 1013.52 1013.54 1013.42 1013.39 1013.71 1013.78 1013.92 1013.70 1013.30 1013.06 1012.79 1012.36 1012.22 1011.69 1011.65 1011.21 1010.89 1010.41 1009.93 1009.72 1009.57 1009.23 1009.24 1009.12 1009.01 1008.93 1008.93 1009.03 1009.07 1009.13 1009.35 1009.70 1010.11 1010.33 1010.47
1014.59 1014.50 1014.40 1014.29 1014.03 1014.06 1013.73 1013.64 1013.75 1013.85 1013.84 1013.92 1013.93 1013.82 1014.08 1013.91 1013.54 1013.25 1012.98 1012.65 1012.24 1011.57 1011.01 1010.71 1010.20 1009.82 1009.89 1009.78 1009.56 1009.58 1009.48 1009.33 1009.20 1009.06 1008.99 1009.05 1009.00 1009.06 1009.22 1009.35 1009.59 1009.50 1010.66
1014.47 1014.68 1014.47 1014.22 1014.01 1013.91 1014.08 1014.23 1014.41 1014.66 1014.83 1014.77 1014.62 1014.61 1014.46 1014.01 1013.43 1013.07 1012.64 1012.10 1011.49 1011.05 1010.58 1009.92 1009.56 1009.24 1009.05 1009.31 1009.06 1008.80 1008.76 1008.61 1008.71 1008.64 1008.64 1008.66 1008.66 1008.76 1009.16 1009.43 1009.88 1010.38 1011.09
1014.20 1014.27 1014.35 1014.24 1014.49 1014.53 1014.88 1015.22 1015.49 1015.52 1015.45 1015.31 1015.20 1015.18 1014.98 1014.69 1013.50 1012.81 1012.35 1011.91 1011.57 1011.38 1011.10 1010.67 1010.22 1010.01 1009.83 1009.49 1009.04 1008.49 1008.78 1009.07 1009.00 1009.15 1009.47 1009.55 1009.57 1009.68 1009.79 1010.12 1010.42 1010.75 1011.28
1014.31 1014.16 1014.33 1014.74 1014.68 1014.97 1015.24 1015.55 1015.75 1015.71 1015.51 1015.38 1015.19 1014.88 1014.52 1013.99 1013.29 1012.83 1012.48 1012.18 1011.97 1011.84 1011.74 1011.60 1011.23 1010.90 1010.63 1010.51 1010.59 1010.53 1010.35 1010.27 1010.37 1010.47 1010.60 1010.71 1010.73 1010.72 1010.74 1011.01 1011.28 1011.51 1011.93
1014.32 1014.11 1014.52 1014.63 1014.59 1014.83 1015.07 1015.32 1015.66 1015.52 1015.27 1015.14 1014.70 1014.41 1014.07 1013.68 1013.11 1012.76 1012.67 1012.62 1012.53 1012.39 1012.36 1012.25 1012.39 1012.27 1012.01 1011.90 1012.10 1012.20 1012.05 1011.81 1011.55 1011.43 1011.48 1011.53 1011.59 1011.63 1011.63 1011.81 1012.00 1012.24 1012.48
1014.44 1014.43 1014.49 1014.56 1014.79 1015.07 1015.29 1015.09 1015.06 1014.93 1014.43 1014.12 1013.87 1013.81 1013.61 1013.18 1012.95 1012.95 1012.95 1012.99 1013.05 1012.94 1012.80 1012.99 1013.18 1013.49 1013.54 1013.28 1013.33 1013.52 1013.53 1013.14 1012.78 1012.59 1012.27 1012.11 1012.18 1012.15 1012.11 1012.39 1012.61 1012.76 1013.00
1014.12 1014.44 1014.41 1014.83 1014.90 1014.69 1014.50 1014.27 1014.40 1014.35 1013.93 1013.70 1013.55 1013.17 1013.42 1013.33 1013.01 1013.08 1013.17 1013.37 1013.51 1013.51 1013.41 1013.47 1013.87 1014.30 1014.50 1014.48 1014.46 1014.38 1014.29 1013.85 1013.73 1013.69 1013.03 1012.62 1012.51 1012.39 1012.45 1012.64 1012.88 1013.04 1013.02
1014.86 1015.06 1015.00 1014.96 1014.90 1014.56 1014.05 1013.79 1013.31 1013.62 1013.38 1013.33 1013.43 1013.61 1013.56 1013.75 1013.79 1013.87 1013.69 1013.69 1013.74 1013.87 1013.94 1013.95 1014.26 1014.76 1015.03 1015.09 1015.18 1015.09 1014.84 1014.46 1014.11 1013.68 1013.27 1012.72 1012.72 1012.75 1012.75 1012.84 1012.88 1013.02 1013.15
Thickness
5731 5722 5718 5710 5704 5695 5690 5686 5689 5689 5687 5682 5677 5674 5666 5660 5656 5651 5647 5645 5640 5637 5634 5629 5628 5627 5623 5620 5620 5618 5611 5608 5603 5608 5606 5606 5608 5607 5604 5603 5599 5591 5588
5723 5717 5708 5699 5694 5687 5683 5682 5683 5682 5678 5674 5668 5666 5660 5655 5650 5645 5642 5639 5635 5631 5628 5624 5622 5619 5616 5617 5605 5609 5604 5602 5597 5594 5594 5594 5594 5594 5595 5591 5586 5583 5580
5712 5703 5695 5689 5684 5680 5678 5679 5675 5671 5668 5662 5658 5654 5649 5644 5640 5635 5634 5631 5628 5625 5622 5621 5619 5614 5612 5609 5606 5602 5595 5591 5592 5585 5585 5585 5583 5580 5575 5577 5575 5570 5569
5704 5698 5691 5686 5682 5678 5676 5673 5667 5663 5657 5649 5643 5638 5633 5632 5630 5625 5620 5617 5616 5614 5612 5612 5602 5604 5601 5599 5592 5587 5584 5581 5578 5576 5571 5572 5569 5566 5566 5565 5563 5561 5558
5697 5688 5685 5683 5677 5670 5665 5659 5654 5648 5641 5633 5628 5624 5620 5617 5612 5609 5606 5603 5603 5602 5601 5599 5596 5594 5590 5585 5580 5578 5574 5571 5568 5564 5568 5566 5563 5561 5560 5559 5556 5550 5548
5690 5681 5674 5668 5663 5655 5651 5643 5635 5628 5622 5615 5611 5607 5604 5601 5595 5591 5586 5585 5582 5580 5578 5579 5579 5579 5576 5572 5569 5566 5564 5562 5567 5565 5561 5563 5563 5561 5555 5553 5549 5540 5539
5680 5672 5664 5658 5651 5644 5638 5629 5622 5615 5608 5601 5597 5593 5588 5584 5580 5574 5569 5566 5563 5561 5560 5560 5559 5560 5559 5556 5555 5553 5550 5550 5550 5546 5545 5551 5554 5555 5551 5547 5544 5541 5540
5668 5659 5651 5644 5635 5628 5621 5612 5607 5599 5590 5584 5580 5578 5575 5571 5565 5560 5555 5553 5552 5552 5551 5550 5549 5549 5548 5546 5547 5541 5536 5534 5534 5537 5536 5541 5541 5542 5540 5539 5538 5536 5529
5652 5644 5636 5629 5620 5613 5604 5598 5592 5583 5576 5572 5569 5565 5560 5557 5553 5550 5544 5542 5541 5540 5538 5537 5535 5534 5533 5533 5535 5530 5526 5521 5520 5521 5522 5527 5533 5532 5533 5530 5530 5526 5524
5635 5628 5622 5615 5607 5597 5590 5588 5580 5574 5567 5562 5556 5551 5547 5544 5538 5536 5531 5530 5523 5521 5522 5521 5518 5512 5511 5508 5514 5515 5512 5514 5513 5508 5505 5510 5519 5522 5524 5527 5527 5524 5523
5622 5616 5609 5601 5594 5588 5582 5578 5571 5563 5555 5547 5545 5541 5540 5535 5533 5528 5522 5520 5517 5512 5510 5509 5508 5498 5494 5494 5491 5494 5499 5498 5502 5502 5503 5505 5508 5513 5518 5520 5521 5521 5516
5610 5603 5597 5590 5585 5579 5572 5566 5560 5548 5540 5532 5531 5532 5526 5522 5520 5514 5510 5507 5501 5497 5496 5497 5495 5489 5489 5487 5483 5485 5482 5482 5487 5491 5497 5501 5500 5502 5507 5513 5514 5511 5511
5597 5590 5584 5580 5574 5568 5561 5551 5547 5538 5529 5521 5516 5522 5519 5515 5512 5506 5499 5494 5486 5483 5483 5482 5480 5480 5482 5484 5481 5478 5476 5478 5479 5481 5485 5490 5492 5493 5495 5503 5506 5502 5500
5588 5581 5576 5571 5564 5557 5550 5544 5530 5517 5512 5512 5509 5510 5508 5506 5504 5498 5492 5486 5479 5473 5468 5466 5471 5474 5477 5480 5476 5476 5476 5473 5474 5476 5478 5479 5483 5488 5493 5496 5500 5493 5490
5579 5572 5567 5562 5554 5548 5539 5521 5512 5502 5496 5495 5494 5498 5497 5498 5491 5483 5476 5472 5465 5460 5458 5464 5471 5475 5477 5479 5479 5476 5470 5468 5469 5470 5471 5472 5478 5483 5486 5487 5491 5485 5486
5568 5563 5558 5552 5546 5537 5524 5516 5501 5487 5490 5489 5485 5488 5490 5483 5481 5479 5475 5468 5464 5459 5460 5464 5463 5465 5471 5472 5474 5471 5466 5462 5463 5464 5467 5472 5471 5472 5476 5480 5481 5483 5482
5555 5551 5547 5540 5533 5528 5518 5506 5491 5489 5488 5482 5484 5480 5478 5476 5477 5474 5474 5469 5468 5464 5466 5464 5462 5462 5461 5462 5463 5465 5463 5461 5461 5461 5462 5463 5466 5471 5473 5479 5478 5479 5481
5545 5537 5536 5528 5524 5522 5517 5509 5498 5489 5484 5482 5477 5476 5474 5473 5474 5473 5472 5473 5472 5470 5466 5464 5461 5460 5460 5459 5456 5457 5456 5456 5459 5461 5461 5462 5464 5469 5472 5474 5474 5476 5479
5535 5532 5527 5524 5521 5514 5512 5507 5498 5490 5485 5481 5478 5476 5472 5470 5471 5471 5470 5471 5469 5471 5470 5467 5467 5465 5462 5460 5460 5458 5458 5460 5462 5463 5465 5466 5470 5472 5473 5475 5475 5477 5468
5527 5522 5519 5518 5516 5512 5504 5498 5492 5483 5475 5471 5470 5468 5468 5469 5475 5474 5473 5474 5475 5474 5474 5475 5472 5470 5469 5464 5464 5464 5464 5468 5468 5468 5468 5468 5469 5470 5469 5466 5463 5460 5455
5521 5517 5513 5512 5506 5501 5494 5486 5479 5473 5468 5466 5464 5462 5457 5462 5472 5473 5473 5474 5473 5470 5467 5466 5466 5464 5462 5462 5464 5468 5465 5461 5459 5457 5454 5452 5453 5453 5454 5450 5449 5446 5444
5511 5510 5508 5501 5500 5493 5488 5480 5473 5469 5466 5465 5465 5464 5461 5466 5470 5470 5470 5469 5467 5464 5460 5457 5457 5456 5456 5455 5452 5451 5450 5449 5445 5443 5441 5439 5438 5438 5437 5436 5432 5430 5428
5503 5504 5500 5498 5496 5489 5484 5479 5472 5469 5467 5465 5468 5466 5466 5466 5469 5468 5466 5464 5461 5458 5454 5452 5448 5447 5446 5444 5440 5437 5436 5435 5434 5433 5431 5430 5428 5426 5425 5423 5421 5418 5416
5497 5497 5497 5495 5490 5483 5477 5476 5472 5469 5471 5471 5470 5467 5464 5466 5466 5463 5461 5459 5456 5454 5451 5447 5443 5439 5437 5436 5432 5428 5425 5424 5424 5424 5425 5425 5423 5423 5422 5419 5416 5415 5413
5498 5495 5495 5487 5484 5483 5480 5479 5475 5471 5470 5470 5467 5467 5463 5460 5461 5459 5457 5454 5451 5449 5448 5445 5440 5436 5432 5430 5427 5425 5424 5424 5422 5421 5423 5426 5426 5427 5426 5423 5420 5420 5422
5490 5488 5485 5482 5480 5478 5481 5479 5480 5473 5472 5469 5464 5459 5457 5453 5452 5450 5450 5450 5449 5447 5445 5444 5440 5435 5431 5429 5428 5426 5425 5425 5425 5427 5428 5431 5431 5430 5430 5430 5430 5430 5432